This is the latest recevied weather packets stored in our database for station/object K5SVV. If no packets are shown the sender has not sent any weather packets the latest 1 day(s).
| Time | Temp. | Humidity | Pressure | Rain* | Wind** | Luminosity | Snow |
|---|---|---|---|---|---|---|---|
| 1778095452 | 13.33° C | 89% | 1013.2 hPa | 0 mm | - | 98 W/m² | - |
| 1778095149 | 13.33° C | 88% | 1013.4 hPa | 0 mm | - | 86 W/m² | - |
| 1778093026 | 13.89° C | 86% | 1013.5 hPa | 0 mm | - | 127 W/m² | - |
| 1778092419 | 13.89° C | 87% | 1013.3 hPa | 0 mm | - | 140 W/m² | - |
| 1778090906 | 13.33° C | 88% | 1013.1 hPa | 0 mm | - | 99 W/m² | - |
| 1778090602 | 13.33° C | 88% | 1013.3 hPa | 0 mm | - | 91 W/m² | - |
| 1778089390 | 13.89° C | 86% | 1012 hPa | 0 mm | - | 199 W/m² | - |
| 1778088481 | 13.89° C | 88% | 1011.1 hPa | 0 mm | - | 220 W/m² | - |
| 1778087875 | 13.33° C | 88% | 1011.6 hPa | 0 mm | - | 163 W/m² | - |
| 1778087572 | 13.89° C | 87% | 1012.2 hPa | 0 mm | - | 139 W/m² | - |
| 1778085755 | 13.33° C | 87% | 1013.5 hPa | 0 mm | - | 294 W/m² | - |
| 1778084843 | 12.78° C | 87% | 1012.9 hPa | 0 mm | - | 333 W/m² | - |
| 1778084540 | 12.78° C | 87% | 1012.4 hPa | 0 mm | - | 280 W/m² | - |
| 1778083627 | 12.78° C | 88% | 1012.5 hPa | 0 mm | - | 259 W/m² | - |
| 1778080066 | 12.22° C | 88% | 1014 hPa | 0 mm | - | 38 W/m² | - |
| 1778079460 | 12.22° C | 87% | 1013.8 hPa | 0 mm | - | 44 W/m² | - |
| 1778077946 | 12.78° C | 85% | 1013.3 hPa | 0 mm | - | 37 W/m² | - |
| 1778077342 | 12.78° C | 85% | 1013 hPa | 0 mm | - | 39 W/m² | - |
| 1778077040 | 12.78° C | 85% | 1012.8 hPa | 0 mm | - | 39 W/m² | - |
| 1778076738 | 12.78° C | 85% | 1012.5 hPa | 0 mm | - | 56 W/m² | - |
| 1778075525 | 12.78° C | 85% | 1012.8 hPa | 0 mm | - | 40 W/m² | - |
| 1778075222 | 12.78° C | 85% | 1012.7 hPa | 0 mm | - | 34 W/m² | - |
| 1778074918 | 12.78° C | 84% | 1012.2 hPa | 0 mm | - | 53 W/m² | - |
| 1778073706 | 13.33° C | 84% | 1012.1 hPa | 0 mm | - | 52 W/m² | - |
| 1778073404 | 13.33° C | 84% | 1011.9 hPa | 0 mm | - | 64 W/m² | - |
* Rain latest hour (hover to see other rain measurements)
** Current wind speed in m/s (hover to see current wind gust speed)